Time,TemperatureF,DewpointF,PressureIn,WindDirection,WindDirectionDegrees,WindSpeedMPH,WindSpeedGustMPH,Humidity,HourlyPrecipIn,Conditions,Clouds,dailyrainin,SoftwareType,DateUTC
2013-08-17 00:05:00,66.7,58.0,30.14,NW,304,2.0,6.0,74,0.00,,,0.00,weatherlink.com 1.10,2013-08-17 05:05:00,
2013-08-17 00:20:00,66.3,58.0,30.15,WSW,250,0.0,4.0,74,0.00,,,0.00,weatherlink.com 1.10,2013-08-17 05:20:00,
2013-08-17 00:35:00,64.4,57.0,30.15,NW,309,2.0,2.0,78,0.00,,,0.00,weatherlink.com 1.10,2013-08-17 05:35:00,
2013-08-17 00:50:00,64.9,58.0,30.15,WSW,251,0.0,3.0,77,0.00,,,0.00,weatherlink.com 1.10,2013-08-17 05:50:00,
2013-08-17 01:05:00,63.3,57.0,30.15,SW,233,0.0,3.0,80,0.00,,,0.00,weatherlink.com 1.10,2013-08-17 06:05:00,
2013-08-17 01:20:00,62.6,57.0,30.15,SW,229,0.0,2.0,82,0.00,,,0.00,weatherlink.com 1.10,2013-08-17 06:20:00,
2013-08-17 01:35:00,61.4,57.0,30.16,SW,224,0.0,1.0,84,0.00,,,0.00,weatherlink.com 1.10,2013-08-17 06:35:00,
2013-08-17 01:50:00,63.4,57.0,30.15,WSW,254,0.0,6.0,80,0.00,,,0.00,weatherlink.com 1.10,2013-08-17 06:50:00,
2013-08-17 02:05:00,63.9,57.0,30.15,WSW,248,0.0,5.0,78,0.00,,,0.00,weatherlink.com 1.10,2013-08-17 07:05:00,
2013-08-17 02:20:00,63.0,57.0,30.15,West,279,0.0,3.0,80,0.00,,,0.00,weatherlink.com 1.10,2013-08-17 07:20:00,
2013-08-17 02:35:00,61.9,56.0,30.15,SSE,165,3.0,3.0,81,0.00,,,0.00,weatherlink.com 1.10,2013-08-17 07:35:00,
2013-08-17 02:50:00,61.7,56.0,30.16,SW,234,1.0,4.0,82,0.00,,,0.00,weatherlink.com 1.10,2013-08-17 07:50:00,
2013-08-17 03:05:00,60.7,56.0,30.16,SW,236,0.0,2.0,84,0.00,,,0.00,weatherlink.com 1.10,2013-08-17 08:05:00,
2013-08-17 03:20:00,59.7,56.0,30.16,WSW,248,0.0,3.0,86,0.00,,,0.00,weatherlink.com 1.10,2013-08-17 08:20:00,
2013-08-17 03:35:00,58.9,55.0,30.16,WSW,248,0.0,0.0,88,0.00,,,0.00,weatherlink.com 1.10,2013-08-17 08:35:00,
2013-08-17 03:50:00,58.6,55.0,30.17,WSW,248,0.0,0.0,89,0.00,,,0.00,weatherlink.com 1.10,2013-08-17 08:50:00,
2013-08-17 04:05:00,57.5,55.0,30.16,WSW,248,0.0,0.0,90,0.00,,,0.00,weatherlink.com 1.10,2013-08-17 09:05:00,
2013-08-17 04:20:00,57.0,55.0,30.17,WSW,248,0.0,0.0,92,0.00,,,0.00,weatherlink.com 1.10,2013-08-17 09:20:00,
2013-08-17 04:35:00,55.8,54.0,30.17,WSW,248,0.0,0.0,93,0.00,,,0.00,weatherlink.com 1.10,2013-08-17 09:35:00,
2013-08-17 04:50:00,55.6,54.0,30.16,WSW,248,1.0,3.0,93,0.00,,,0.00,weatherlink.com 1.10,2013-08-17 09:50:00,
2013-08-17 05:05:00,55.2,54.0,30.16,WSW,249,2.0,3.0,94,0.00,,,0.00,weatherlink.com 1.10,2013-08-17 10:05:00,
2013-08-17 05:20:00,55.4,54.0,30.17,WSW,249,2.0,3.0,93,0.00,,,0.00,weatherlink.com 1.10,2013-08-17 10:20:00,
2013-08-17 05:36:00,54.5,53.0,30.17,WSW,249,1.0,2.0,94,0.00,,,0.00,weatherlink.com 1.10,2013-08-17 10:36:00,
2013-08-17 05:51:00,54.0,53.0,30.17,WSW,252,2.0,3.0,95,0.00,,,0.00,weatherlink.com 1.10,2013-08-17 10:51:00,
2013-08-17 06:06:00,54.2,53.0,30.17,West,259,2.0,3.0,95,0.00,,,0.00,weatherlink.com 1.10,2013-08-17 11:06:00,
2013-08-17 06:21:00,56.1,54.0,30.18,West,265,0.0,2.0,94,0.00,,,0.00,weatherlink.com 1.10,2013-08-17 11:21:00,
2013-08-17 06:36:00,56.5,55.0,30.18,West,265,0.0,0.0,93,0.00,,,0.00,weatherlink.com 1.10,2013-08-17 11:36:00,
2013-08-17 06:51:00,55.2,53.0,30.18,West,265,0.0,0.0,93,0.00,,,0.00,weatherlink.com 1.10,2013-08-17 11:51:00,
2013-08-17 07:06:00,55.9,54.0,30.18,West,265,0.0,0.0,93,0.00,,,0.00,weatherlink.com 1.10,2013-08-17 12:06:00,
2013-08-17 07:21:00,58.1,56.0,30.18,WSW,244,0.0,2.0,92,0.00,,,0.00,weatherlink.com 1.10,2013-08-17 12:21:00,
2013-08-17 07:36:00,60.2,57.0,30.18,WSW,240,0.0,1.0,89,0.00,,,0.00,weatherlink.com 1.10,2013-08-17 12:36:00,
2013-08-17 07:51:00,60.8,56.0,30.18,SSW,209,3.0,3.0,85,0.00,,,0.00,weatherlink.com 1.10,2013-08-17 12:51:00,
2013-08-17 08:06:00,61.0,57.0,30.18,SSE,165,1.0,3.0,85,0.00,,,0.00,weatherlink.com 1.10,2013-08-17 13:06:00,
2013-08-17 08:21:00,60.6,56.0,30.18,WSW,252,0.0,4.0,85,0.00,,,0.00,weatherlink.com 1.10,2013-08-17 13:21:00,
2013-08-17 08:36:00,60.7,57.0,30.18,West,275,1.0,6.0,86,0.00,,,0.00,weatherlink.com 1.10,2013-08-17 13:36:00,
2013-08-17 08:51:00,60.9,56.0,30.18,SSW,208,6.0,6.0,85,0.00,,,0.00,weatherlink.com 1.10,2013-08-17 13:51:00,
2013-08-17 09:06:00,61.4,57.0,30.18,South,172,3.0,6.0,85,0.00,,,0.00,weatherlink.com 1.10,2013-08-17 14:06:00,
2013-08-17 09:21:00,61.6,57.0,30.18,South,184,2.0,6.0,85,0.00,,,0.00,weatherlink.com 1.10,2013-08-17 14:21:00,
2013-08-17 09:36:00,62.1,58.0,30.18,SSW,200,3.0,6.0,85,0.00,,,0.00,weatherlink.com 1.10,2013-08-17 14:36:00,
2013-08-17 09:51:00,63.5,58.0,30.18,SE,139,3.0,7.0,83,0.00,,,0.00,weatherlink.com 1.10,2013-08-17 14:51:00,
2013-08-17 10:06:00,63.7,58.0,30.18,South,183,2.0,5.0,81,0.00,,,0.00,weatherlink.com 1.10,2013-08-17 15:06:00,
2013-08-17 10:21:00,62.6,57.0,30.18,SSW,211,2.0,5.0,83,0.00,,,0.00,weatherlink.com 1.10,2013-08-17 15:21:00,
2013-08-17 10:36:00,64.0,58.0,30.17,South,175,3.0,6.0,82,0.00,,,0.00,weatherlink.com 1.10,2013-08-17 15:36:00,
2013-08-17 10:51:00,66.4,59.0,30.18,SSW,205,2.0,5.0,77,0.00,,,0.00,weatherlink.com 1.10,2013-08-17 15:51:00,
2013-08-17 11:06:00,66.8,59.0,30.17,SSE,155,2.0,4.0,77,0.00,,,0.00,weatherlink.com 1.10,2013-08-17 16:06:00,
2013-08-17 11:21:00,67.3,60.0,30.17,SW,234,4.0,8.0,77,0.00,,,0.00,weatherlink.com 1.10,2013-08-17 16:21:00,
2013-08-17 11:36:00,68.2,60.0,30.17,South,176,1.0,8.0,75,0.00,,,0.00,weatherlink.com 1.10,2013-08-17 16:36:00,
2013-08-17 11:51:00,68.1,60.0,30.16,SSE,167,1.0,7.0,76,0.00,,,0.00,weatherlink.com 1.10,2013-08-17 16:51:00,
2013-08-17 12:06:00,69.3,60.0,30.15,SE,136,1.0,7.0,71,0.00,,,0.00,weatherlink.com 1.10,2013-08-17 17:06:00,
2013-08-17 12:21:00,69.6,60.0,30.15,South,191,0.0,5.0,71,0.00,,,0.00,weatherlink.com 1.10,2013-08-17 17:21:00,
2013-08-17 12:36:00,69.1,60.0,30.15,South,180,2.0,4.0,73,0.00,,,0.00,weatherlink.com 1.10,2013-08-17 17:36:00,
2013-08-17 12:51:00,70.1,60.0,30.14,SSW,213,1.0,4.0,71,0.00,,,0.00,weatherlink.com 1.10,2013-08-17 17:51:00,
2013-08-17 13:06:00,70.7,60.0,30.13,SW,232,1.0,4.0,68,0.00,,,0.00,weatherlink.com 1.10,2013-08-17 18:06:00,
2013-08-17 13:21:00,71.4,61.0,30.13,SSW,210,1.0,5.0,69,0.00,,,0.00,weatherlink.com 1.10,2013-08-17 18:21:00,
2013-08-17 13:36:00,70.9,60.0,30.13,SSE,168,2.0,4.0,68,0.00,,,0.00,weatherlink.com 1.10,2013-08-17 18:36:00,
2013-08-17 13:51:00,71.6,60.0,30.12,WSW,240,5.0,7.0,67,0.00,,,0.00,weatherlink.com 1.10,2013-08-17 18:51:00,
2013-08-17 14:06:00,71.7,60.0,30.12,SE,146,3.0,7.0,66,0.00,,,0.00,weatherlink.com 1.10,2013-08-17 19:06:00,
2013-08-17 14:21:00,73.5,60.0,30.12,SW,217,2.0,9.0,62,0.00,,,0.00,weatherlink.com 1.10,2013-08-17 19:21:00,
2013-08-17 14:36:00,73.3,59.0,30.11,SE,144,1.0,7.0,61,0.00,,,0.00,weatherlink.com 1.10,2013-08-17 19:36:00,
2013-08-17 14:51:00,71.4,59.0,30.11,SSE,153,1.0,9.0,64,0.00,,,0.00,weatherlink.com 1.10,2013-08-17 19:51:00,
2013-08-17 15:06:00,71.9,58.0,30.11,SW,235,2.0,10.0,61,0.00,,,0.00,weatherlink.com 1.10,2013-08-17 20:06:00,
2013-08-17 15:21:00,73.6,59.0,30.10,SE,131,0.0,9.0,60,0.00,,,0.00,weatherlink.com 1.10,2013-08-17 20:21:00,
2013-08-17 15:36:00,72.6,59.0,30.09,West,261,1.0,10.0,63,0.00,,,0.00,weatherlink.com 1.10,2013-08-17 20:36:00,
2013-08-17 15:51:00,73.7,60.0,30.09,South,186,0.0,7.0,62,0.00,,,0.00,weatherlink.com 1.10,2013-08-17 20:51:00,
2013-08-17 16:06:00,71.9,59.0,30.08,SSE,167,3.0,10.0,64,0.00,,,0.00,weatherlink.com 1.10,2013-08-17 21:06:00,
2013-08-17 16:21:00,72.4,58.0,30.08,SW,215,1.0,10.0,61,0.00,,,0.00,weatherlink.com 1.10,2013-08-17 21:21:00,
2013-08-17 16:37:00,70.9,58.0,30.08,SSW,207,2.0,8.0,64,0.00,,,0.00,weatherlink.com 1.10,2013-08-17 21:37:00,
2013-08-17 16:52:00,74.0,57.0,30.07,SE,146,2.0,8.0,56,0.00,,,0.00,weatherlink.com 1.10,2013-08-17 21:52:00,
2013-08-17 17:07:00,73.2,57.0,30.07,SW,225,9.0,12.0,57,0.00,,,0.00,weatherlink.com 1.10,2013-08-17 22:07:00,
2013-08-17 17:22:00,73.8,57.0,30.07,WSW,238,4.0,8.0,55,0.00,,,0.00,weatherlink.com 1.10,2013-08-17 22:22:00,
2013-08-17 17:37:00,76.3,57.0,30.07,SW,215,3.0,9.0,52,0.00,,,0.00,weatherlink.com 1.10,2013-08-17 22:37:00,
2013-08-17 17:52:00,78.2,58.0,30.07,WSW,249,4.0,13.0,50,0.00,,,0.00,weatherlink.com 1.10,2013-08-17 22:52:00,
2013-08-17 18:07:00,79.0,56.0,30.07,WSW,240,2.0,10.0,46,0.00,,,0.00,weatherlink.com 1.10,2013-08-17 23:07:00,
2013-08-17 18:22:00,78.8,56.0,30.07,SW,234,5.0,11.0,46,0.00,,,0.00,weatherlink.com 1.10,2013-08-17 23:22:00,
2013-08-17 18:37:00,76.9,56.0,30.07,SW,236,1.0,11.0,48,0.00,,,0.00,weatherlink.com 1.10,2013-08-17 23:37:00,
2013-08-17 18:52:00,77.2,56.0,30.07,WSW,241,3.0,9.0,48,0.00,,,0.00,weatherlink.com 1.10,2013-08-17 23:52:00,
2013-08-17 19:07:00,76.8,56.0,30.07,SW,228,5.0,12.0,48,0.00,,,0.00,weatherlink.com 1.10,2013-08-18 00:07:00,
2013-08-17 19:22:00,76.1,55.0,30.07,WSW,257,5.0,10.0,49,0.00,,,0.00,weatherlink.com 1.10,2013-08-18 00:22:00,
2013-08-17 19:37:00,75.4,56.0,30.07,WSW,239,2.0,9.0,52,0.00,,,0.00,weatherlink.com 1.10,2013-08-18 00:37:00,
2013-08-17 19:52:00,74.6,56.0,30.06,WSW,248,2.0,10.0,53,0.00,,,0.00,weatherlink.com 1.10,2013-08-18 00:52:00,
2013-08-17 20:07:00,74.4,57.0,30.06,SW,235,3.0,10.0,54,0.00,,,0.00,weatherlink.com 1.10,2013-08-18 01:07:00,
2013-08-17 20:22:00,74.0,57.0,30.06,WSW,257,4.0,10.0,55,0.00,,,0.00,weatherlink.com 1.10,2013-08-18 01:22:00,
2013-08-17 20:37:00,73.6,56.0,30.07,West,267,3.0,10.0,55,0.00,,,0.00,weatherlink.com 1.10,2013-08-18 01:37:00,
2013-08-17 20:52:00,73.2,56.0,30.07,SW,221,3.0,8.0,56,0.00,,,0.00,weatherlink.com 1.10,2013-08-18 01:52:00,
2013-08-17 21:07:00,68.4,54.0,30.08,WSW,252,1.0,4.0,61,0.00,,,0.00,weatherlink.com 1.10,2013-08-18 02:07:00,
2013-08-17 21:22:00,67.1,57.0,30.08,WSW,237,1.0,3.0,69,0.00,,,0.00,weatherlink.com 1.10,2013-08-18 02:22:00,
2013-08-17 21:37:00,68.8,57.0,30.08,WSW,249,2.0,4.0,67,0.00,,,0.00,weatherlink.com 1.10,2013-08-18 02:37:00,
2013-08-17 21:52:00,69.0,58.0,30.08,WSW,242,1.0,4.0,67,0.00,,,0.00,weatherlink.com 1.10,2013-08-18 02:52:00,
2013-08-17 22:07:00,68.5,57.0,30.08,WSW,246,2.0,7.0,68,0.00,,,0.00,weatherlink.com 1.10,2013-08-18 03:07:00,
2013-08-17 22:22:00,68.1,58.0,30.08,WNW,283,1.0,4.0,69,0.00,,,0.00,weatherlink.com 1.10,2013-08-18 03:22:00,
2013-08-17 22:37:00,68.0,58.0,30.07,SW,234,2.0,5.0,70,0.00,,,0.00,weatherlink.com 1.10,2013-08-18 03:37:00,
2013-08-17 22:52:00,67.5,58.0,30.07,WSW,250,2.0,4.0,71,0.00,,,0.00,weatherlink.com 1.10,2013-08-18 03:52:00,
2013-08-17 23:07:00,66.7,58.0,30.07,SW,227,2.0,4.0,73,0.00,,,0.00,weatherlink.com 1.10,2013-08-18 04:07:00,
2013-08-17 23:22:00,66.4,58.0,30.07,West,262,4.0,6.0,73,0.00,,,0.00,weatherlink.com 1.10,2013-08-18 04:22:00,
2013-08-17 23:37:00,66.4,58.0,30.07,West,261,2.0,5.0,73,0.00,,,0.00,weatherlink.com 1.10,2013-08-18 04:37:00,
2013-08-17 23:52:00,66.5,58.0,30.07,WSW,242,1.0,6.0,73,0.00,,,0.00,weatherlink.com 1.10,2013-08-18 04:52:00,